,

(GMT )
Banff

Weather History for CWZG - November, 2011

Change the Weather History Date:

Thursday, November 17, 2011

  Actual Average Record
Temperature  
Mean Temperature 20 °F -  
Max Temperature 26 °F - - ()
Min Temperature 13 °F - - ()
Degree Days  
Heating Degree Days 44    
Moisture  
Dew Point 14 °F    
Average Humidity 79    
Maximum Humidity 91    
Minimum Humidity 58    
Precipitation  
Precipitation 0.00 in - - ()
Sea Level Pressure  
Sea Level Pressure 29.60 in    
Wind  
Wind Speed 7 mph ()    
Max Wind Speed 13 mph    
Max Gust Speed 21 mph    
T = Trace of Precipitation, MM = Missing Value Source: Averaged Metar Reports

Daily Weather History Graph

Daily Weather History Graph

Search for Another Location

Airport or City:

Trip Planner

Search our weather history database for the weather conditions in past years. The results will help you decide how hot, cold, wet, or windy it might be!

Date:

Astronomy

Nov. 17, 2011 Rise Set
Actual Time 8:02 AM MST 4:51 PM MST
Civil Twilight 7:25 AM MST 5:28 PM MST
Nautical Twilight 6:44 AM MST 6:08 PM MST
Astronomical Twilight 6:05 AM MST 6:48 PM MST
Moon 11:32 PM MST (11/17) 1:00 PM MST (11/17)
Length of Visible Light 10h 02m
Length of Day
8h 49m
Waning Gibbous, 59% of the Moon is Illuminated
Nov 17
Waning Gibbous
Nov 18
Last Quarter
Nov 24
New
Dec 2
First Quarter
Dec 10
Full

Hourly Weather History & Observations

Time (MST) Temp. Windchill Dew Point Humidity Pressure Visibility Wind Dir Wind Speed Gust Speed Precip Events Conditions
1:00 AM 17.8 °F 6.6 °F 14.7 °F 88% 29.68 in - SW 9.2 mph - N/A   Unknown
2:00 AM 18.1 °F 7.9 °F 14.9 °F 87% 29.62 in - SW 8.1 mph - N/A   Unknown
3:00 AM 17.8 °F 7.5 °F 15.4 °F 91% 29.60 in - SW 8.1 mph - N/A   Unknown
4:00 AM 17.6 °F 9.3 °F 15.3 °F 91% 29.54 in - WSW 5.8 mph - N/A   Unknown
6:00 AM 17.4 °F 9.1 °F 14.4 °F 88% 29.49 in - WSW 5.8 mph - N/A   Unknown
7:00 AM 17.2 °F 5.2 °F 13.5 °F 85% 29.49 in - WSW 10.4 mph 19.6 mph N/A   Unknown
8:00 AM 16.7 °F 3.2 °F 12.7 °F 84% 29.49 in - SW 12.7 mph 20.7 mph N/A   Unknown
9:00 AM 17.8 °F 5.2 °F 13.3 °F 83% 29.49 in - SW 11.5 mph 18.4 mph N/A   Unknown
10:00 AM 19.4 °F 9.5 °F 13.6 °F 78% 29.49 in - WSW 8.1 mph - N/A   Unknown
11:00 AM 22.6 °F 13.4 °F 15.6 °F 74% 29.49 in - SW 8.1 mph - N/A   Unknown
1:00 PM 24.4 °F 15.6 °F 19.0 °F 80% 29.56 in - West 8.1 mph - N/A   Unknown
2:00 PM 25.3 °F 16.7 °F 18.3 °F 75% 29.58 in - SW 8.1 mph - N/A   Unknown
3:00 PM 26.8 °F 20.2 °F 13.6 °F 58% 29.59 in - WSW 5.8 mph - N/A   Unknown
4:00 PM 25.9 °F 20.3 °F 13.1 °F 58% 29.61 in - West 4.6 mph - N/A   Unknown
5:00 PM 23.5 °F 17.6 °F 14.9 °F 70% 29.64 in - WSW 4.6 mph - N/A   Unknown
6:00 PM 21.0 °F 16.2 °F 13.1 °F 71% 29.67 in - SW 3.5 mph - N/A   Unknown
7:00 PM 19.2 °F 14.1 °F 13.6 °F 79% 29.69 in - WSW 3.5 mph - N/A   Unknown
8:00 PM 17.1 °F 11.7 °F 13.3 °F 85% 29.70 in - SW 3.5 mph - N/A   Unknown
9:00 PM 16.7 °F 11.2 °F 11.8 °F 81% 29.73 in - NE 3.5 mph - N/A   Unknown
10:00 PM 15.4 °F 3.8 °F 10.2 °F 80% 29.75 in - NNE 9.2 mph 18.4 mph N/A   Unknown
11:00 PM 13.3 °F -0.5 °F 6.8 °F 75% 29.79 in - NNE 11.5 mph 19.6 mph N/A   Unknown